Regional Weather Roundup
Issued by NWS

Home | Current Version | Previous Version | Graphics & Text | Print | Product List | Glossary On
Versions: 1 2 3 4 5 6 7 8 9 10 11 12 13 14 15 16 17 18 19 20 21 22 23 24 25 26 27 28 29 30 31 32 33 34 35 36 37 38 39 40 41 42 43 44 45 46 47 48 49 50
000
ASUS43 KBIS 260410
RWRND

NORTH DAKOTA REGIONAL WEATHER ROUNDUP
NATIONAL WEATHER SERVICE BISMARCK ND
1000 PM CST SAT FEB 25 2017

NOTE: "FAIR" INDICATES FEW OR NO CLOUDS BELOW 12,000 FEET WITH NO
SIGNIFICANT WEATHER AND/OR OBSTRUCTIONS TO VISIBILITY.


NDZ001>003-009>011-017-260500-
NORTHWEST NORTH DAKOTA

CITY           SKY/WX    TMP DP  RH WIND       PRES   REMARKS
WILLISTON      FAIR       4   1  88 N3        29.71R
MINOT          CLOUDY    15  11  83 NW7       29.69S WCI   5
MINOT AFB      MOCLDY    13   9  83 NW7       29.69R WCI   3
$$

NDZ018>021-031>035-040>046-260500-
SOUTHWEST NORTH DAKOTA

CITY           SKY/WX    TMP DP  RH WIND       PRES   REMARKS
BISMARCK       FAIR      28  24  85 SW12      29.65F WCI  18
DICKINSON      MOCLDY    17  14  88 NW5       29.62S WCI  10
GARRISON         N/A     15  10  80 N9G18     29.67R WCI   3
HETTINGER ARPT PTCLDY    16  14  92 CALM      29.67S
$$

NDZ004>008-012>016-024-026-027-054-260500-
NORTHEAST NORTH DAKOTA

CITY           SKY/WX    TMP DP  RH WIND       PRES   REMARKS
GRAND FORKS    CLOUDY    18   9  68 N12       29.74S WCI   5
GRND FRKS AFB  FLURRIES  18  13  84 NE9       29.73F WCI   6
DEVILS LAKE    LGT SNOW  15  12  88 NE10      29.68F FOG     WCI   2
$$

NDZ022-023-025-028>030-036>039-047>053-260500-
SOUTHEAST NORTH DAKOTA

CITY           SKY/WX    TMP DP  RH WIND       PRES   REMARKS
FARGO          PTCLDY    24  20  84 SW3       29.71F
JAMESTOWN      FAIR      19  16  88 S6        29.66F WCI  11
$$





USA.gov is the U.S. government's official web portal to all federal, state and local government web resources and services.